Location: Unspecified
(58.7730°N, 5.8460°E)
Time: 05:17:31
(UTC+02:00)

Cosmos 2058 - Visible Passes

Search period start: 29 September 2016 00:00
Search period end: 09 October 2016 00:00
Orbit: 563 x 587 km, 82.5° (Epoch: 28 September)

Date Brightness Start Highest point End Pass type
(mag) Time Alt. Az. Time Alt. Az. Time Alt. Az.
29 Sep 3.9 20:15:50 10° N 20:19:28 29° ENE 20:22:51 11° ESE visible
29 Sep 3.8 21:52:39 10° NNW 21:56:37 47° W 21:59:06 21° SSW visible
30 Sep 3.6 20:19:19 10° N 20:23:07 34° ENE 20:26:44 11° SE visible
30 Sep 4.2 21:56:19 10° NNW 22:00:09 38° W 22:03:00 16° SSW visible
01 Oct 3.3 20:22:49 10° N 20:26:46 42° ENE 20:30:41 10° SE visible
01 Oct 4.6 22:00:00 10° NNW 22:03:39 31° W 22:06:57 12° SSW visible
02 Oct 3.1 20:26:21 10° N 20:30:24 51° ENE 20:34:26 10° SSE visible
02 Oct 5.0 22:03:43 10° NNW 22:07:08 25° W 22:10:32 10° SW visible
03 Oct 2.9 20:29:53 10° N 20:34:00 64° ENE 20:38:06 10° SSE visible
03 Oct 5.3 22:07:28 10° NW 22:10:35 21° W 22:13:42 10° SW visible
04 Oct 2.8 20:33:26 10° NNW 20:37:35 79° ENE 20:41:44 10° SSE visible
04 Oct 5.6 22:11:18 10° NW 22:14:03 17° W 22:16:46 10° SW visible
05 Oct 2.9 20:37:01 10° NNW 20:41:10 84° WSW 20:45:19 10° S visible
05 Oct 5.9 22:15:15 10° NW 22:17:29 14° W 22:19:42 10° WSW visible
06 Oct 3.2 20:40:36 10° NNW 20:44:44 67° W 20:48:50 10° S visible
06 Oct 6.0 22:19:26 10° WNW 22:20:53 12° WNW 22:22:21 10° W visible
07 Oct 3.7 20:44:13 10° NNW 20:48:16 54° W 20:52:18 10° S visible
08 Oct 4.1 20:47:51 10° NNW 20:51:47 43° W 20:55:43 10° SSW visible
